Location: *
(42.6878°S, 179.9954°W)
Time: 04:15:20
(UTC+00:00)

Daily predictions for brighter satellites

Satellite Brightness Start Highest point End
(mag) Time Altitude Azimuth Time Altitude Azimuth Time Altitude Azimuth
Uosat 12 SS-18 rocket 4.3 06:24:06 10° NNW 06:29:16 89° WSW 06:33:41 10° SE
Cosmos 1674 3.9 06:27:50 10° NE 06:30:42 21° E 06:33:35 10° SE
Cosmos 2034 Rocket 4.0 06:25:06 10° N 06:31:23 83° E 06:37:41 10° S
USA 234 4.5 06:26:18 10° SE 06:32:22 40° SSW 06:38:26 10° W
CZ-4C R/B 3.6 06:31:57 10° NE 06:35:10 37° ESE 06:38:28 10° S
Okean O Rocket 3.5 06:34:13 10° ESE 06:35:26 11° E 06:36:39 10° ENE
IRIDIUM 106 4.4 06:31:31 10° S 06:36:49 67° E 06:42:02 10° NNE
CORIOLIS 4.3 06:31:19 10° SSE 06:36:52 87° ENE 06:42:22 10° NNW
Cosmos 2237 Rocket 3.9 06:34:01 10° S 06:37:39 17° SE 06:41:16 10° E
Okean 1-7 3.1 06:33:43 10° N 06:38:03 87° W 06:42:30 10° S
Cosmos 1908 Rocket 3.7 06:33:38 10° S 06:38:11 88° W 06:42:37 10° N
Meteor PRIRODA 4.1 06:35:31 10° S 06:39:15 68° WSW 06:42:57 10° NNW
Cosmos 2360 Rocket 2.7 06:34:46 10° SSW 06:40:27 66° WNW 06:46:05 10° N
In-Cosmos 22 4.4 06:37:35 10° NNE 06:42:45 46° E 06:48:08 10° SSE
Cosmos 1437 Rocket 3.1 06:38:41 10° SSW 06:42:49 75° W 06:46:48 10° N
CZ-2D R/B 4.5 06:40:14 10° S 06:44:02 49° WSW 06:47:47 10° NNW
Cosmos 1300 Rocket 4.3 06:40:51 10° S 06:44:51 32° ESE 06:48:46 10° NE
SJ-11-01 4.3 06:40:06 10° SSE 06:44:53 83° ENE 06:49:35 10° NNW
Cosmos 1782 Rocket 3.6 06:41:18 10° S 06:45:43 59° E 06:50:04 10° NNE
NOAA 6 4.0 06:40:55 10° SSE 06:46:08 78° ENE 06:51:17 10° N
ADEOS 4.0 06:41:10 10° S 06:46:27 69° WSW 06:51:40 10° NNW
Cosmos 405 Rocket 4.1 06:43:36 10° NNW 06:47:15 43° WSW 06:50:54 10° S
COSMOS 2428 3.2 06:42:32 10° SSW 06:48:01 44° ESE 06:53:27 10° NE
Alouette 2 Rocket 3.7 06:44:41 10° N 06:49:41 53° E 06:53:28 10° SSE
YAOGAN 1 3.8 06:48:21 10° SE 06:51:41 21° E 06:54:57 10° NE
KORONAS-FOTON 4.1 06:49:08 10° NNE 06:52:46 43° E 06:56:25 10° SSE
Meteor 2-15 4.5 06:47:42 10° N 06:53:54 86° E 07:00:10 10° S
SJ 16-02 1.4 06:49:32 10° SSW 06:53:59 59° ESE 06:58:21 10° NNE
Meteor 1-21 4.3 06:49:09 10° N 06:54:36 53° E 07:00:07 10° SSE
Cosmos 1241 Rocket 4.5 06:48:49 10° SSW 06:55:05 68° SE 07:01:13 10° NE
CZ-4C R/B 4.1 06:50:53 10° NNE 06:56:47 21° ENE 07:02:13 10° ESE
Cosmos 2333 4.5 06:52:19 10° SSW 06:58:06 76° WNW 07:03:53 10° NNE
Cosmos 1627 Rocket 4.5 06:52:09 10° S 06:58:34 72° E 07:04:47 10° NNE
Cosmos 1777 Rocket 4.4 06:53:43 10° S 06:58:51 45° ESE 07:03:54 10° NE
Okean 2 3.9 06:57:14 10° NNE 07:01:03 37° E 07:04:54 10° SSE
GEOS 3 Rocket 3.9 06:56:47 10° NNE 07:02:07 75° NW 07:07:28 10° SW
ARGOS 3.8 06:57:30 10° S 07:02:54 62° WSW 07:08:12 10° NNW
Cosmos 1707 2.7 06:59:07 10° N 07:03:00 88° E 07:06:58 10° S
CZ-4B R/B 3.8 07:00:06 10° SE 07:04:53 32° E 07:09:35 10° NNE
Cosmos 2322 Rocket 4.4 07:01:21 10° SW 07:06:00 26° WNW 07:10:38 10° NNW
X-37B 1.5 07:03:48 10° W 07:06:29 36° NNW 07:08:17 17° NNE
CZ-4B R/B 4.3 07:03:40 10° S 07:07:41 45° WSW 07:11:51 10° NW
Cosmos 1626 2.0 07:05:50 10° N 07:09:27 64° E 07:13:09 10° SSE
Cosmos 2279 Rocket 4.1 07:05:04 10° NNE 07:11:08 53° E 07:17:15 10° SSE
PAYLOAD B 4.4 07:05:43 10° SSE 07:11:16 53° E 07:16:44 10° N
Geosat 4.3 07:08:25 14° NE 07:12:35 52° ESE 07:17:31 10° SSW
Cosmos 1503 Rocket 4.2 07:08:07 10° SSW 07:13:28 77° WNW 07:18:42 10° NNE
Cosmos 1634 Rocket 4.0 07:09:52 10° N 07:16:10 89° E 07:22:36 10° S
SL-16 R/B 4.2 07:15:15 10° SSE 07:17:39 13° SE 07:19:50 10° ESE
Lacrosse 5 rocket 1.0 07:14:34 10° NW 07:18:12 86° SW 07:21:59 10° SE
Kosmos-1675 4.1 07:12:00 10° SSW 07:18:13 59° SE 07:20:43 21° NE
Cosmos 2151 Rocket 4.4 07:16:29 10° S 07:20:37 33° ESE 07:22:24 24° ENE
H-2A R/B 2.6 07:19:39 20° NE 07:22:20 42° ESE 07:26:40 10° S
Genesis I 4.3 07:19:39 10° NW 07:23:09 42° SW 07:26:41 10° SSE
Cosmos 2026 Rocket 4.2 07:18:24 10° S 07:24:47 74° W 07:30:57 10° N
Aureole 3 Rocket 3.6 07:25:25 27° E 07:25:25 27° E 07:28:09 10° SE
CZ-4B DEB 4.2 07:20:11 10° SSE 07:25:46 88° WSW 07:31:17 10° NNW
Cosmos 1758 3.2 07:22:10 10° S 07:26:14 81° E 07:30:05 11° N
COSMOS 2455 4.3 07:21:38 10° SW 07:27:06 36° WNW 07:32:30 10° N
Cosmos 1908 3.1 07:23:32 10° S 07:27:27 67° E 07:30:10 19° NNE
Cosmos 2322 4.0 07:21:44 10° SSW 07:27:29 72° WNW 07:33:09 10° NNE
PSLV R/B 3.9 07:26:07 10° S 07:30:13 83° WSW 07:34:12 10° NNW
CZ-4B R/B 3.3 07:33:06 15° SE 07:33:06 15° SE 07:34:02 10° SSE
Sich 1 Rocket 3.6 07:30:56 10° S 07:35:30 64° E 07:38:12 23° NNE
USA 276 3.4 07:35:09 10° W 07:37:59 36° SSW 07:39:23 22° SSE
Cosmos 1607 3.9 07:31:44 10° SSW 07:38:11 79° ESE 07:42:06 25° NE
FALCON 9 DEB 2.8 07:35:16 10° NW 07:38:28 88° SW 07:39:25 43° SE
Cosmos 1674 Rocket 3.9 07:38:37 28° NNE 07:40:34 45° E 07:44:53 10° SSE
ATLAS 3B R/B 2.9 07:36:26 10° N 07:43:37 52° ENE 07:50:29 10° SE
SL-14 R/B 3.3 07:45:43 30° NNE 07:47:33 62° E 07:51:37 10° SSE
Cosmos 2227 Rocket 2.8 07:49:16 34° E 07:49:16 34° E 07:54:02 10° SE
CZ-4 R/B 1.3 07:48:02 10° SSE 07:52:03 65° ENE 07:53:19 40° NNE
ATLAS 5 CENTAUR R/B 2.1 07:46:30 10° SSW 07:52:09 55° SE 07:53:25 43° E
USA 306 4.4 07:51:38 10° SW 07:55:07 25° SSE 07:56:02 23° SE
Cosmos 2333 Rocket 4.4 07:55:12 10° SW 07:59:43 24° WNW 08:04:14 10° NNW
Cosmos 2221 Rocket 3.7 07:55:50 10° N 08:00:25 81° W 08:05:04 10° S
Cosmos 1980 3.7 07:56:07 10° SSW 08:01:49 67° ESE 08:03:27 45° NE
Cosmos 2297 Rocket 2.1 07:57:21 10° NNW 08:02:59 70° ENE 08:08:41 10° SSE
Cosmos 2219 Rocket 3.9 07:59:13 10° SW 08:04:09 31° WNW 08:09:03 10° NNW
Cosmos 1953 2.2 08:03:50 10° S 08:07:58 83° E 08:08:02 83° ENE
Cosmos 1238 Rocket 4.0 08:03:00 10° S 08:08:13 42° ESE 08:08:13 42° ESE
Cosmos 1378 Rocket 3.4 08:08:26 43° N 08:09:50 88° W 08:14:15 10° S
Okean O Rocket 1.8 08:07:50 10° S 08:12:16 71° WSW 08:16:12 13° NNW
USA 308 4.3 08:14:02 10° SW 08:17:40 28° SSE 08:17:40 28° SSE
Cosmos 1763 Rocket 3.3 08:14:58 27° N 08:17:51 76° ENE 08:23:13 10° SSE
Cosmos 1655 Rocket 3.9 08:13:08 10° S 08:19:37 82° E 08:21:59 42° NNE
SL-8 R/B 3.8 08:16:57 10° WNW 08:21:49 75° SSW 08:22:31 62° SE
Cosmos 2237 Rocket 2.1 08:16:46 10° SSW 08:22:34 90° ESE 08:23:39 61° NNE
NOSS 3-1 (C) 4.5 08:14:47 10° N 08:23:42 43° ENE 08:30:56 10° SE
Okean 1 Rocket 3.3 08:19:46 10° S 08:23:32 63° SSE 08:23:32 63° SSE
YAOGAN 1 4.0 08:23:48 10° S 08:27:52 37° WSW 08:31:52 10° NW
Cosmos 1300 3.6 08:26:36 10° SSW 08:29:28 46° SSW 08:29:28 46° SSW
Okean 2 Rocket 4.3 08:26:57 10° SSW 08:31:08 39° W 08:32:45 28° NW
SJ 16-02 4.2 08:29:50 10° WSW 08:31:56 13° W 08:34:00 10° WNW
COSMOS 2428 4.4 08:27:11 10° SW 08:32:01 28° WNW 08:36:02 13° NNW
Cosmos 724 4.3 08:26:01 10° SW 08:32:03 78° WNW 08:32:57 64° N
Cosmos 2219 3.8 08:42:08 43° SE 08:42:08 43° SE 08:45:56 10° SSE
Cosmos 2266 Rocket 4.3 08:34:40 10° SSW 08:40:52 64° W 08:43:24 37° NNW
USA 81 4.2 08:43:32 67° SSE 08:43:32 67° SSE 08:48:11 10° S
CZ-4C R/B 2.9 08:36:17 10° NNW 08:44:52 86° NE 08:52:09 10° SE
USA 305 4.4 08:41:53 10° SW 08:44:31 32° SSW 08:44:31 32° SSW
Meteor 2-17 Rocket 4.5 08:41:18 10° SSW 08:47:25 74° W 08:48:24 61° NNW
Meteor 2-5 Rocket 4.3 08:50:46 47° SSE 08:50:46 47° SSE 08:54:58 10° SSE
CSL-04 Rocket 4.1 08:44:37 10° SSE 08:48:40 52° SSE 08:48:40 52° SSE
Lacrosse 5 rocket 3.7 08:55:07 10° WSW 08:57:42 17° SSW 08:58:02 17° SSW
H-2A R/B 4.4 08:56:41 16° WNW 08:58:25 20° W 09:01:46 10° SW
SL-16 R/B 2.8 08:57:14 10° SSW 09:01:43 51° S 09:01:43 51° S
Cosmos 1937 Rocket 4.4 09:01:17 10° SSW 09:04:59 45° S 09:04:59 45° S
Cosmos 2227 Rocket 3.5 09:30:40 27° W 09:32:53 37° WSW 09:38:12 10° S
ATLAS 3B R/B 3.9 09:27:41 10° WNW 09:34:32 40° SW 09:41:04 10° SSE
ATLAS 5 CENTAUR R/B 4.1 09:32:19 10° WSW 09:34:51 18° W 09:34:51 18° W
BREEZE-M DEB (TANK) 4.0 09:22:28 10° W 09:36:47 68° SSW 09:36:47 68° SSW
CZ-4C R/B 4.5 10:27:24 10° W 10:34:12 29° SW 10:40:04 10° SSE
